Location: Be?i?
(36.9044°N, 30.1006°E)
Time: 10:43:06
(UTC+00:00)

Cosmos 1937 Rocket - Pass Details

Date: 05 August 2024
Orbit: 744 x 777 km, 74.0° (Epoch: 13 September)

Event Time Altitude Azimuth Distance (km) Brightness Sun altitude
Rises 23:28:01 0° 347° (NNW) 3,204 7.4 -33.1°
Reaches altitude 10° 23:30:26 10° 352° (N) 2,281 6.6 -32.9°
Enters shadow 23:34:17 43° 25° (NNE) 1,048 4.5 -32.5°
